Location: Brachbach
(49.1847°N, 9.7240°E)
Time: 06:55:45
(UTC+00:00)

FO-29 - Pass Details

Date: 22 March 2026
Orbit: 801 x 1320 km, 98.5° (Epoch: 17 April)

Event Time Altitude Azimuth Distance (km) Brightness Sun altitude
Rises 19:50:14 0° 14° (NNE) 4,202 13.0 -21.6°
Reaches altitude 10° 19:52:51 10° 16° (NNE) 3,276 12.4 -22.0°
Maximum altitude 20:00:37 82° 104° (ESE) 1,335 10.0 -23.1°
Drops below altitude 10° 20:08:29 10° 193° (SSW) 3,324 12.1 -24.2°
Sets 20:11:09 0° 194° (SSW) 4,267 12.7 -24.6°
